Weather History for Watertown, SD

Change the Weather History Date:

Saturday, July 13, 2013

  Actual Average Record
Temperature  
Mean Temperature 79 °F 71 °F  
Max Temperature 86 °F 83 °F 101 °F (1936)
Min Temperature 72 °F 60 °F 38 °F (1926)
Degree Days  
Heating Degree Days 0 0  
Month to date heating degree days 0 8  
Since 1 June heating degree days 88 86  
Since 1 July heating degree days 0 8  
Cooling Degree Days 14 7  
Month to date cooling degree days 105 84  
Year to date cooling degree days 216 202  
Since 1 June cooling degree days 194 180  
Growing Degree Days 29 (Base 50)    
Moisture  
Dew Point 72 °F    
Average Humidity 79    
Maximum Humidity 93    
Minimum Humidity 65    
Precipitation  
Precipitation T in 0.10 in 1.90 in (1966)
Month to date precipitation 0.76 1.30  
Year to date precipitation 14.26 11.73  
Sea Level Pressure  
Sea Level Pressure 29.90 in    
Wind  
Wind Speed 7 mph (SE)    
Max Wind Speed 20 mph    
Max Gust Speed 36 mph    
Visibility 10 miles    
Events Rain    
T = Trace of Precipitation, MM = Missing Value Source: NWS Daily Summary

Daily Weather History Graph

Daily Weather History Graph

Search for Another Location

Airport:

Trip Planner

Search our weather history database for the weather conditions in past years. The results will help you decide how hot, cold, wet, or windy it might be!

Date:

Astronomy

Jul. 13, 2013 Rise Set
Actual Time 5:55 AM CDT 9:13 PM CDT
Civil Twilight 5:19 AM CDT 9:49 PM CDT
Nautical Twilight 4:32 AM CDT 10:35 PM CDT
Astronomical Twilight 3:33 AM CDT 11:34 PM CDT
Moon 11:28 AM CDT (7/13) 11:37 PM CDT (7/13)
Length of Visible Light 16h 30m
Length of Day
15h 18m
Waxing Crescent, 26% of the Moon is Illuminated
Jul 13
Waxing Crescent
Jul 15
First Quarter
Jul 22
Full
Jul 29
Last Quarter
Aug 6
New

Hourly Weather History & Observations

Time (CDT) Temp. Heat Index Dew Point Humidity Pressure Visibility Wind Dir Wind Speed Gust Speed Precip Events Conditions
12:53 AM 79.0 °F - 71.1 °F 77% 29.82 in 10.0 mi South 15.0 mph 21.9 mph N/A   Clear
1:53 AM 78.1 °F - 71.1 °F 79% 29.82 in 10.0 mi SSW 13.8 mph - N/A   Clear
2:53 AM 77.0 °F - 71.1 °F 82% 29.83 in 10.0 mi SSW 11.5 mph - N/A   Clear
3:53 AM 75.0 °F - 71.1 °F 87% 29.83 in 10.0 mi SSW 4.6 mph - N/A   Clear
4:53 AM 73.0 °F - 71.1 °F 93% 29.85 in 10.0 mi SE 4.6 mph - N/A   Clear
5:53 AM 72.0 °F - 70.0 °F 93% 29.87 in 7.0 mi South 3.5 mph - N/A   Mostly Cloudy
6:53 AM 75.0 °F - 72.0 °F 90% 29.88 in 8.0 mi NNE 6.9 mph - N/A   Overcast
7:02 AM 75.2 °F - 71.6 °F 89% 29.92 in 8.0 mi NNE 6.9 mph - N/A   Overcast
7:53 AM 75.9 °F - 72.0 °F 87% 29.88 in 8.0 mi NE 5.8 mph - N/A   Overcast
8:00 AM 75.2 °F - 71.6 °F 89% 29.92 in 9.0 mi NE 11.5 mph - N/A   Overcast
8:31 AM 75.2 °F - 71.6 °F 89% 29.93 in 10.0 mi NNE 8.1 mph - N/A   Scattered Clouds
8:53 AM 75.9 °F - 72.0 °F 87% 29.90 in 10.0 mi NE 5.8 mph - N/A   Clear
9:53 AM 77.0 °F - 72.0 °F 84% 29.90 in 10.0 mi East 8.1 mph - 0.00 in Rain Light Rain
10:53 AM 75.9 °F - 72.0 °F 87% 29.85 in 10.0 mi ENE 10.4 mph - 0.00 in   Clear
11:19 AM 75.2 °F - 71.6 °F 89% 29.94 in 10.0 mi East 5.8 mph - N/A   Mostly Cloudy
11:53 AM 75.9 °F - 72.0 °F 87% 29.92 in 4.0 mi ESE 5.8 mph - N/A   Overcast
12:53 PM 78.1 °F - 72.0 °F 81% 29.92 in 9.0 mi South 6.9 mph - N/A   Overcast
1:53 PM 81.0 °F 85.2 °F 72.0 °F 74% 29.91 in 10.0 mi Variable 5.8 mph - N/A   Overcast
2:29 PM 80.6 °F 84.6 °F 71.6 °F 74% 29.95 in 10.0 mi SE 5.8 mph - N/A   Scattered Clouds
2:39 PM 82.4 °F 87.2 °F 71.6 °F 70% 29.94 in 10.0 mi SSE 8.1 mph - N/A   Mostly Cloudy
2:53 PM 82.9 °F 88.8 °F 73.0 °F 72% 29.91 in 10.0 mi SSE 5.8 mph - N/A   Mostly Cloudy
3:27 PM 84.2 °F 90.9 °F 73.4 °F 70% 29.94 in 10.0 mi South 9.2 mph - N/A   Partly Cloudy
3:53 PM 84.9 °F 91.4 °F 73.0 °F 67% 29.90 in 10.0 mi SSE 5.8 mph - N/A   Clear
4:53 PM 84.9 °F 92.1 °F 73.9 °F 69% 29.90 in 10.0 mi Variable 6.9 mph - N/A   Scattered Clouds
5:05 PM 84.2 °F 90.9 °F 73.4 °F 70% 29.94 in 10.0 mi North - - N/A   Mostly Cloudy
5:49 PM 86.0 °F 93.4 °F 73.4 °F 66% 29.93 in 10.0 mi SSE 8.1 mph - N/A   Mostly Cloudy
5:53 PM 86.0 °F 93.0 °F 73.0 °F 65% 29.89 in 10.0 mi South 10.4 mph - N/A   Mostly Cloudy
6:53 PM 84.0 °F 90.2 °F 73.0 °F 69% 29.88 in 10.0 mi SSE 5.8 mph - N/A   Overcast
7:29 PM 82.4 °F 88.2 °F 73.4 °F 74% 29.92 in 10.0 mi SSE 8.1 mph - N/A   Overcast
7:43 PM 82.4 °F 87.2 °F 71.6 °F 70% 29.92 in 10.0 mi SSE 9.2 mph - N/A   Overcast
7:53 PM 82.0 °F 86.7 °F 72.0 °F 71% 29.88 in 10.0 mi SSE 9.2 mph - N/A   Overcast
8:53 PM 78.1 °F - 72.0 °F 81% 29.88 in 10.0 mi East 8.1 mph - N/A   Mostly Cloudy
9:53 PM 77.0 °F - 72.0 °F 84% 29.91 in 10.0 mi Variable 3.5 mph - N/A   Mostly Cloudy
10:53 PM 75.9 °F - 70.0 °F 82% 29.94 in 10.0 mi ESE 6.9 mph - N/A   Mostly Cloudy
11:53 PM 75.9 °F - 70.0 °F 82% 29.96 in 10.0 mi SE 6.9 mph - N/A   Overcast